Weather Roundup
Issued by NWS Chicago, IL

Home | Current Version | Previous Version | Graphics & Text | Print | Product List | Glossary On
Versions: 1 2 3 4 5 6 7 8 9 10 11 12 13 14 15 16 17 18 19 20 21 22 23 24 25 26 27 28 29 30 31 32 33 34 35 36 37 38 39 40 41 42 43 44 45 46 47 48 49 50
000
NZUS59 KLOT 282310
HRRLOT

CHICAGO AREA WEATHER ROUNDUP
NATIONAL WEATHER SERVICE CHICAGO/ROMEOVILLE IL
600 PM CDT MON JUL 28 2014

NOTE: "FAIR" INDICATES FEW OR NO CLOUDS BELOW 12,000 FEET WITH NO
SIGNIFICANT WEATHER AND/OR OBSTRUCTIONS TO VISIBILITY.

* THESE STATIONS ARE NOT UNDER NWS QUALITY CONTROL. THEY ALSO MAY NOT
  REPORT WEATHER SUCH AS PRECIPITATION OR FOG.

ILZ005-006-012>014-019>023-290000-
NORTHEAST ILLINOIS

CITY           SKY/WX    TMP DP  RH WIND       PRES   REMARKS
OHARE          MOSUNNY   71  48  43 NE6       30.07F
MIDWAY         MOSUNNY   71  50  47 NE10      30.07F
AURORA         CLOUDY    70  50  49 N8        30.10F
LANSING*       SUNNY     65  47  52 NE8       30.09F
JOLIET*        MOSUNNY   70  46  42 N6        30.09F
WAUKEGAN       SUNNY     64  50  60 E6        30.07F
DUPAGE AIRPORT PTSUNNY   71  50  47 NW12      30.08F
WHEELING       SUNNY     68  50  52 NE5       30.09F
KANKAKEE*      MOSUNNY   68  49  50 N7        30.09S
MORRIS*        PTSUNNY   71  51  50 CALM      30.09F
LEWIS AIRPORT* MOSUNNY   70  47  43 N9        30.08F
NORTHERLY IS     N/A     64  49  57 N10         N/A
$$

WIZ051-052-058>065-066-070>072-290000-
SOUTHEAST WISCONSIN

CITY           SKY/WX    TMP DP  RH WIND       PRES   REMARKS
MILWAUKEE      PTSUNNY   63  49  60 SE3       30.08F
KENOSHA*       MOSUNNY   66  52  60 E7        30.08F
RACINE*        SUNNY     64  49  57 NE3       30.09F
BURLINGTON     MOSUNNY   68  50  53 NW7       30.07F
WAUKESHA       PTSUNNY   70  52  52 NW12      30.08F
WEST BEND      CLOUDY    64  52  63 SE6       30.06S
$$

INZ001>003-010>013-019-020-290000-
NORTHWEST INDIANA

CITY           SKY/WX    TMP DP  RH WIND       PRES   REMARKS
GARY*          MOSUNNY   66  50  55 N9G21     30.10F
MICHIGAN CITY* NOT AVBL
RENSSELAER*    NOT AVBL
VALPARAISO     SUNNY     63  48  58 N12G24    30.07F
$$

LMZ740>746-290000-
SOUTHERN LAKE MICHIGAN

STATION/POSITION TIME  SKY/WX   TEMP WIND        PRES    VSBY
                                AIR  DIR/SP/G
                 (UTC)          (F)  (DEG/KT/KT) (MB)    (MI)
HARRISON CRIB    2300            62   10/ 11/ 13   N/A
BURNHAM HARBOR   2300            63  350/  8/ 12   N/A
CALUMET HARBOR   2300            63  340/ 10/ 12 1017.7F
BURNS HARBOR     NOT AVBL
MICHIGAN CITY    2300            64  330/ 26/ 30   N/A
$$

ABBREVIATIONS USED IN REMARKS
   TC - TEMPERATURE IN CELSIUS
  WCI - WIND CHILL INDEX
   HX - HEAT INDEX
  VSB - VISIBILITY
$$



USA.gov is the U.S. government's official web portal to all federal, state and local government web resources and services.